DW3800 Weather Reports


Display with metric or nautical units.
time (UTC)temp
F
wind
direction
speed
MPH
gust
MPH
rain 1hr
in
rain 24hr
in
rain mn
in
humidity
%
barometer
mb
20260508025554 48 237 0.0 0.0 0.00 0.00 0.00 43 1012.3
20260508025051 48 237 0.0 0.0 0.00 0.00 0.00 43 1012.2
20260508024547 48 214 0.0 0.0 0.00 0.00 0.00 42 1012.3
20260508024044 49 214 0.0 0.0 0.00 0.00 0.00 43 1012.1
20260508023540 48 265 0.0 0.0 0.00 0.00 0.00 42 1012.1
20260508023038 49 265 0.0 0.0 0.00 0.00 0.00 42 1012.2
20260508022534 49 261 0.0 0.0 0.00 0.00 0.00 43 1012.1
20260508022031 49 261 0.0 0.0 0.00 0.00 0.00 42 1012.0
20260508021527 49 261 0.0 0.0 0.00 0.00 0.00 41 1012.0
20260508021022 49 237 0.0 0.0 0.00 0.00 0.00 42 1012.1
20260508020521 49 237 0.0 0.0 0.00 0.00 0.00 43 1011.8
20260508020018 49 220 0.0 0.0 0.00 0.00 0.00 44 1011.6
20260508015515 49 208 0.0 0.0 0.00 0.00 0.00 44 1011.7
20260508015012 50 239 0.0 0.0 0.00 0.00 0.00 44 1011.8
20260508014508 51 239 0.0 0.0 0.00 0.00 0.00 42 1011.8
20260508014005 51 265 0.0 1.0 0.00 0.00 0.00 43 1011.7
20260508013501 51 217 0.0 0.0 0.00 0.00 0.00 46 1011.7
20260508012958 52 155 0.0 0.0 0.00 0.00 0.00 40 1011.6
20260508012455 53 178 0.0 0.0 0.00 0.00 0.00 37 1011.7
20260508011953 53 194 0.0 3.0 0.00 0.00 0.00 36 1011.5
20260508011450 54 303 0.0 1.0 0.00 0.00 0.00 37 1011.6
20260508010948 54 197 0.0 1.0 0.00 0.00 0.00 36 1011.5
20260508010445 55 176 3.0 3.0 0.00 0.00 0.00 34 1011.4
20260508005942 55 228 1.0 2.0 0.00 0.00 0.00 34 1011.6
20260508005438 56 209 2.0 6.0 0.00 0.00 0.00 33 1011.4
20260508004935 56 226 1.0 3.0 0.00 0.00 0.00 32 1011.5
20260508004431 56 229 1.0 3.0 0.00 0.00 0.00 32 1011.5
20260508003928 56 243 3.0 5.0 0.00 0.00 0.00 32 1011.5
20260508003425 57 261 5.0 6.0 0.00 0.00 0.00 31 1011.4
20260508002922 57 188 3.0 9.0 0.00 0.00 0.00 31 1011.6
20260508002419 57 188 1.0 3.0 0.00 0.00 0.00 32 1011.4
20260508001915 57 220 4.0 5.0 0.00 0.00 0.00 31 1011.6
20260508001411 57 215 4.0 8.0 0.00 0.00 0.00 31 1011.4
20260508000908 57 212 1.0 3.0 0.00 0.00 0.00 31 1011.4
20260508000405 57 223 2.0 9.0 0.00 0.00 0.00 31 1011.6
20260507235901 57 185 4.0 8.0 0.00 0.00 0.00 30 1011.7
20260507235358 57 172 1.0 9.0 0.00 0.00 0.00 31 1011.7
20260507234855 57 160 4.0 9.0 0.00 0.00 0.00 30 1011.7
20260507234351 57 194 2.0 7.0 0.00 0.00 0.00 30 1011.8
20260507233848 57 272 3.0 7.0 0.00 0.00 0.00 30 1011.8
20260507233345 57 241 6.0 8.0 0.00 0.00 0.00 30 1011.7
20260507232843 56 237 5.0 8.0 0.00 0.00 0.00 30 1011.8
20260507232339 56 208 6.0 10.0 0.00 0.00 0.00 30 1011.8
20260507231837 56 133 4.0 9.0 0.00 0.00 0.00 30 1012.0
20260507231334 57 195 3.0 5.0 0.00 0.00 0.00 30 1012.2
20260507230830 56 194 7.0 13.0 0.00 0.00 0.00 30 1012.0
20260507230327 56 193 4.0 7.0 0.00 0.00 0.00 30 1012.2
20260507225827 56 163 1.0 3.0 0.00 0.00 0.00 30 1012.2
20260507225323 56 233 10.0 15.0 0.00 0.00 0.00 29 1012.3
20260507224820 56 174 6.0 8.0 0.00 0.00 0.00 29 1012.1
20260507224316 57 221 5.0 7.0 0.00 0.00 0.00 29 1012.2
20260507223812 57 179 5.0 10.0 0.00 0.00 0.00 29 1012.3
20260507223309 57 154 2.0 5.0 0.00 0.00 0.00 31 1012.1
20260507222806 57 216 2.0 3.0 0.00 0.00 0.00 29 1012.1
20260507222305 56 224 4.0 9.0 0.00 0.00 0.00 30 1012.2
20260507221800 56 189 3.0 7.0 0.00 0.00 0.00 31 1012.3
20260507221256 56 175 2.0 11.0 0.00 0.00 0.00 30 1012.6
20260507220752 56 149 5.0 11.0 0.00 0.00 0.00 30 1012.5
20260507220251 57 212 3.0 6.0 0.00 0.00 0.00 30 1012.5
20260507215746 56 150 1.0 6.0 0.00 0.00 0.00 33 1012.3
20260507215244 56 193 0.0 6.0 0.00 0.00 0.00 30 1012.5
20260507214741 57 257 3.0 5.0 0.00 0.00 0.00 28 1012.6
20260507214238 57 215 4.0 7.0 0.00 0.00 0.00 28 1012.4
20260507213733 57 196 8.0 10.0 0.00 0.00 0.00 29 1012.5
20260507213231 57 158 2.0 3.0 0.00 0.00 0.00 30 1012.5
20260507212726 57 247 5.0 7.0 0.00 0.00 0.00 30 1012.7
20260507212223 56 198 3.0 7.0 0.00 0.00 0.00 30 1012.5
20260507211720 55 259 4.0 10.0 0.00 0.00 0.00 30 1012.7
20260507211216 57 281 3.0 10.0 0.00 0.00 0.00 30 1012.7
20260507210714 56 273 4.0 6.0 0.00 0.00 0.00 30 1012.8
20260507210210 56 272 3.0 6.0 0.00 0.00 0.00 31 1012.7
20260507205707 55 166 4.0 16.0 0.00 0.00 0.00 31 1012.6
20260507205203 56 204 2.0 8.0 0.00 0.00 0.00 31 1012.9
20260507204659 55 194 3.0 7.0 0.00 0.00 0.00 31 1012.8
20260507204158 54 236 2.0 5.0 0.00 0.00 0.00 31 1012.9
20260507203655 56 216 6.0 9.0 0.00 0.00 0.00 31 1013.1
20260507203152 55 205 7.0 9.0 0.00 0.00 0.00 31 1013.1
20260507202648 55 182 3.0 5.0 0.00 0.00 0.00 32 1013.1
20260507202144 56 173 3.0 8.0 0.00 0.00 0.00 31 1013.3
20260507201639 55 165 3.0 5.0 0.00 0.00 0.00 31 1013.4
20260507201137 55 218 1.0 2.0 0.00 0.00 0.00 31 1013.2
20260507200632 56 189 2.0 9.0 0.00 0.00 0.00 33 1013.5
20260507200129 56 227 3.0 8.0 0.00 0.00 0.00 30 1013.3
20260507195626 55 38 1.0 2.0 0.00 0.00 0.00 31 1013.6
20260507195123 53 158 1.0 6.0 0.00 0.00 0.00 32 1013.3
20260507194620 54 192 4.0 9.0 0.00 0.00 0.00 32 1013.5
20260507194115 53 199 4.0 7.0 0.00 0.00 0.00 32 1013.7
20260507193612 53 250 5.0 10.0 0.00 0.00 0.00 33 1013.5
20260507193109 53 227 7.0 13.0 0.00 0.00 0.00 32 1013.3
20260507192606 53 246 5.0 7.0 0.00 0.00 0.00 32 1013.3
20260507192103 54 294 6.0 7.0 0.00 0.00 0.00 31 1013.6
20260507191558 54 200 0.0 6.0 0.00 0.00 0.00 32 1013.6
20260507191055 54 233 1.0 6.0 0.00 0.00 0.00 31 1013.8
20260507190552 54 234 1.0 5.0 0.00 0.00 0.00 35 1013.6
20260507190051 53 175 3.0 6.0 0.00 0.00 0.00 32 1013.5
20260507185549 54 217 7.0 13.0 0.00 0.00 0.00 31 1013.6
20260507185045 53 129 1.0 3.0 0.00 0.00 0.00 32 1013.5
20260507184544 53 248 1.0 6.0 0.00 0.00 0.00 33 1013.7
20260507184041 52 217 2.0 7.0 0.00 0.00 0.00 34 1013.9
20260507183537 53 127 2.0 8.0 0.00 0.00 0.00 32 1013.9
20260507183034 52 282 3.0 9.0 0.00 0.00 0.00 33 1013.7
20260507182530 52 194 1.0 5.0 0.00 0.00 0.00 34 1013.8
20260507182026 52 206 4.0 7.0 0.00 0.00 0.00 32 1013.9
20260507181523 52 220 2.0 8.0 0.00 0.00 0.00 35 1014.0
20260507181020 52 233 5.0 8.0 0.00 0.00 0.00 33 1013.8
20260507180516 53 150 1.0 3.0 0.00 0.00 0.00 33 1014.0
20260507180013 52 158 3.0 7.0 0.00 0.00 0.00 33 1013.8
20260507175509 51 119 2.0 7.0 0.00 0.00 0.00 32 1014.1
20260507175007 52 224 4.0 7.0 0.00 0.00 0.00 32 1014.0
20260507174504 52 227 5.0 7.0 0.00 0.00 0.00 32 1014.1
20260507174002 51 267 5.0 9.0 0.00 0.00 0.00 33 1014.0
20260507173458 51 102 4.0 5.0 0.00 0.00 0.00 33 1014.1
20260507172955 51 125 0.0 8.0 0.00 0.00 0.00 36 1014.1
20260507172451 51 160 5.0 7.0 0.00 0.00 0.00 34 1014.2
20260507171948 51 177 7.0 10.0 0.00 0.00 0.00 34 1014.3
20260507171444 50 162 2.0 7.0 0.00 0.00 0.00 33 1014.4
20260507170941 49 46 1.0 5.0 0.00 0.00 0.00 35 1014.3
20260507170438 50 151 1.0 2.0 0.00 0.00 0.00 35 1014.5
20260507165934 51 185 6.0 9.0 0.00 0.00 0.00 35 1014.4
20260507165430 50 160 3.0 7.0 0.00 0.00 0.00 35 1014.5
20260507164926 50 147 2.0 6.0 0.00 0.00 0.00 35 1014.8
20260507164423 51 207 2.0 9.0 0.00 0.00 0.00 36 1014.7
20260507163920 51 171 2.0 3.0 0.00 0.00 0.00 38 1014.7
20260507163418 50 257 2.0 3.0 0.00 0.00 0.00 39 1014.7
20260507162914 50 10 3.0 7.0 0.00 0.00 0.00 39 1014.8
20260507162410 49 298 4.0 5.0 0.00 0.00 0.00 38 1014.9
20260507161908 49 170 5.0 6.0 0.00 0.00 0.00 39 1014.9
20260507161403 49 241 4.0 5.0 0.00 0.00 0.00 39 1014.9
20260507160900 49 213 4.0 7.0 0.00 0.00 0.00 38 1014.9
20260507160356 50 50 0.0 7.0 0.00 0.00 0.00 40 1014.8
20260507155852 49 27 1.0 3.0 0.00 0.00 0.00 40 1015.0
20260507155348 48 132 1.0 3.0 0.00 0.00 0.00 42 1014.9
20260507154845 48 264 2.0 2.0 0.00 0.00 0.00 42 1015.0
20260507154342 47 351 0.0 6.0 0.00 0.00 0.00 45 1015.1
20260507153839 49 223 4.0 6.0 0.00 0.00 0.00 41 1015.1
20260507153336 48 329 2.0 5.0 0.00 0.00 0.00 42 1014.9
20260507152832 47 201 2.0 6.0 0.00 0.00 0.00 44 1015.1
20260507152329 48 209 6.0 7.0 0.00 0.00 0.00 43 1015.2
20260507151825 47 288 2.0 6.0 0.00 0.00 0.00 44 1015.1
20260507151321 47 191 2.0 3.0 0.00 0.00 0.00 45 1015.0
20260507150818 47 71 1.0 2.0 0.00 0.00 0.00 47 1014.8
20260507150315 46 188 7.0 8.0 0.00 0.00 0.00 48 1015.4
20260507145811 46 213 3.0 5.0 0.00 0.00 0.00 47 1015.1
20260507145308 46 72 2.0 2.0 0.00 0.00 0.00 45 1015.0
20260507144805 45 65 1.0 3.0 0.00 0.00 0.00 46 1015.1
20260507144302 45 79 2.0 3.0 0.00 0.00 0.00 46 1015.1
20260507143758 45 165 4.0 5.0 0.00 0.00 0.00 47 1015.1
20260507143256 44 183 4.0 5.0 0.00 0.00 0.00 46 1015.4
20260507142751 45 8 0.0 3.0 0.00 0.00 0.00 47 1015.4
20260507142248 45 261 4.0 5.0 0.00 0.00 0.00 47 1015.4
20260507141745 44 18 0.0 2.0 0.00 0.00 0.00 46 1015.2
20260507141242 45 205 2.0 6.0 0.00 0.00 0.00 47 1015.5
20260507140738 45 349 1.0 5.0 0.00 0.00 0.00 49 1015.5
20260507140236 44 344 1.0 2.0 0.00 0.00 0.00 50 1015.5
20260507135732 45 211 2.0 3.0 0.00 0.00 0.00 53 1015.5
20260507135230 44 1 0.0 2.0 0.00 0.00 0.00 51 1015.5
20260507134726 44 225 1.0 3.0 0.00 0.00 0.00 52 1015.5
20260507134222 43 16 1.0 5.0 0.00 0.00 0.00 56 1015.6
20260507133718 43 205 4.0 6.0 0.00 0.00 0.00 57 1015.6
20260507133215 43 237 3.0 6.0 0.00 0.00 0.00 57 1015.7
20260507132713 43 179 3.0 5.0 0.00 0.00 0.00 58 1015.5
20260507132209 43 221 1.0 3.0 0.00 0.00 0.00 60 1015.4
20260507131706 43 343 0.0 2.0 0.00 0.00 0.00 60 1015.7
20260507131204 42 169 3.0 3.0 0.00 0.00 0.00 60 1015.5
20260507130700 42 247 2.0 3.0 0.00 0.00 0.00 61 1015.8
20260507130158 42 330 0.0 1.0 0.00 0.00 0.00 63 1015.7
20260507125656 41 4 0.0 1.0 0.00 0.00 0.00 65 1015.6
20260507125154 41 148 1.0 1.0 0.00 0.00 0.00 66 1015.6
20260507124649 41 304 0.0 2.0 0.00 0.00 0.00 67 1015.6
20260507124147 41 259 1.0 2.0 0.00 0.00 0.00 68 1015.9
20260507123646 40 212 1.0 2.0 0.00 0.00 0.00 69 1015.7
20260507123142 40 256 1.0 2.0 0.00 0.00 0.00 70 1015.6
20260507122637 39 290 0.0 2.0 0.00 0.00 0.00 71 1015.7
20260507122133 39 215 1.0 1.0 0.00 0.00 0.00 72 1015.8
20260507121630 39 211 2.0 2.0 0.00 0.00 0.00 72 1015.7
20260507121126 39 192 1.0 2.0 0.00 0.00 0.00 73 1015.8
20260507120622 38 243 1.0 1.0 0.00 0.00 0.00 73 1015.6
20260507120119 38 259 1.0 2.0 0.00 0.00 0.00 74 1015.9
20260507115615 37 272 0.0 2.0 0.00 0.00 0.00 75 1015.7
20260507115111 37 268 0.0 1.0 0.00 0.00 0.00 75 1015.8
20260507114607 36 253 0.0 1.0 0.00 0.00 0.00 77 1015.6
20260507114104 35 245 0.0 1.0 0.00 0.00 0.00 79 1015.7
20260507113601 33 246 0.0 0.0 0.00 0.00 0.00 82 1015.5
20260507113059 32 216 0.0 0.0 0.00 0.00 0.00 83 1015.6
20260507112556 32 212 0.0 0.0 0.00 0.00 0.00 83 1015.7
20260507112053 32 211 0.0 0.0 0.00 0.00 0.00 82 1015.6
20260507111550 33 211 0.0 0.0 0.00 0.00 0.00 81 1015.7
20260507111047 33 211 0.0 0.0 0.00 0.00 0.00 82 1015.6
20260507110543 33 211 0.0 0.0 0.00 0.00 0.00 82 1015.6
20260507110040 33 215 0.0 0.0 0.00 0.00 0.00 82 1015.8
20260507105537 33 215 0.0 0.0 0.00 0.00 0.00 81 1015.8
20260507105032 33 209 0.0 1.0 0.00 0.00 0.00 82 1015.6
20260507104530 33 230 0.0 0.0 0.00 0.00 0.00 82 1015.4
20260507104026 33 230 0.0 0.0 0.00 0.00 0.00 81 1015.7
20260507103522 34 230 0.0 0.0 0.00 0.00 0.00 80 1015.6
20260507103019 34 234 0.0 0.0 0.00 0.00 0.00 80 1015.5
20260507102516 34 233 0.0 1.0 0.00 0.00 0.00 80 1015.6
20260507102012 34 231 0.0 0.0 0.00 0.00 0.00 79 1015.6
20260507101507 34 216 0.0 0.0 0.00 0.00 0.00 80 1015.6
20260507101004 33 242 0.0 0.0 0.00 0.00 0.00 82 1015.8
20260507100502 33 242 0.0 0.0 0.00 0.00 0.00 81 1015.8
20260507095959 33 220 0.0 0.0 0.00 0.00 0.00 81 1015.8
20260507095457 33 220 0.0 0.0 0.00 0.00 0.00 80 1015.7
20260507094954 34 220 0.0 0.0 0.00 0.00 0.00 79 1015.7
20260507094450 34 220 0.0 0.0 0.00 0.00 0.00 78 1015.7
20260507093947 34 220 0.0 1.0 0.00 0.00 0.00 78 1015.8
20260507093445 34 209 0.0 0.0 0.00 0.00 0.00 78 1015.8
20260507092943 35 222 0.0 1.0 0.00 0.00 0.00 77 1015.7
20260507092438 35 236 0.0 0.0 0.00 0.00 0.00 77 1015.9
20260507091936 34 221 0.0 0.0 0.00 0.00 0.00 78 1015.8
20260507091432 34 220 0.0 0.0 0.00 0.00 0.00 78 1015.9
20260507090928 34 220 0.0 0.0 0.00 0.00 0.00 77 1015.8
20260507090424 34 224 0.0 1.0 0.00 0.00 0.00 77 1015.9
20260507085921 34 216 0.0 1.0 0.00 0.00 0.00 77 1015.7
20260507085418 34 216 0.0 0.0 0.00 0.00 0.00 76 1015.8
20260507084915 34 213 0.0 0.0 0.00 0.00 0.00 77 1015.6
20260507084412 35 204 0.0 1.0 0.00 0.00 0.00 76 1015.8
20260507083909 35 215 0.0 1.0 0.00 0.00 0.00 76 1015.9
20260507083405 35 206 0.0 1.0 0.00 0.00 0.00 77 1015.8
20260507082902 34 221 0.0 0.0 0.00 0.00 0.00 78 1015.7
20260507082357 34 209 0.0 0.0 0.00 0.00 0.00 77 1015.7
20260507081855 35 209 0.0 0.0 0.00 0.00 0.00 76 1015.8
20260507081351 35 209 0.0 0.0 0.00 0.00 0.00 75 1015.8
20260507080848 35 209 0.0 1.0 0.00 0.00 0.00 75 1015.8
20260507080344 34 214 0.0 0.0 0.00 0.00 0.00 78 1015.8
20260507075839 33 215 0.0 0.0 0.00 0.00 0.00 78 1015.5
20260507075335 33 215 0.0 0.0 0.00 0.00 0.00 78 1015.8
20260507074832 34 215 0.0 0.0 0.00 0.00 0.00 77 1015.9
20260507074330 34 215 0.0 0.0 0.00 0.00 0.00 77 1015.7
20260507073827 34 215 0.0 0.0 0.00 0.00 0.00 76 1015.9
20260507073323 35 215 0.0 0.0 0.00 0.00 0.00 76 1015.6
20260507072821 35 215 0.0 0.0 0.00 0.00 0.00 75 1015.8
20260507072318 35 215 0.0 0.0 0.00 0.00 0.00 75 1015.9
20260507071815 35 215 0.0 0.0 0.00 0.00 0.00 75 1016.1
20260507071312 35 215 0.0 0.0 0.00 0.00 0.00 73 1016.2
20260507070808 35 215 0.0 0.0 0.00 0.00 0.00 73 1016.3
20260507070306 35 215 0.0 0.0 0.00 0.00 0.00 73 1016.2
20260507065802 36 215 0.0 0.0 0.00 0.00 0.00 72 1016.3
20260507065259 36 215 0.0 0.0 0.00 0.00 0.00 72 1016.0
20260507064756 36 215 0.0 0.0 0.00 0.00 0.00 71 1016.3
20260507064255 35 215 0.0 0.0 0.00 0.00 0.00 73 1016.2
20260507063752 35 215 0.0 0.0 0.00 0.00 0.00 72 1016.3
20260507063249 35 215 0.0 0.0 0.00 0.00 0.00 72 1016.2
20260507062746 35 215 0.0 0.0 0.00 0.00 0.00 73 1016.5
20260507062243 35 186 0.0 0.0 0.00 0.00 0.00 74 1016.5
20260507061741 35 186 0.0 1.0 0.00 0.00 0.00 73 1016.6
20260507061238 35 228 0.0 0.0 0.00 0.00 0.00 74 1016.6
20260507060737 36 229 0.0 0.0 0.00 0.00 0.00 73 1016.4
20260507060233 36 229 0.0 0.0 0.00 0.00 0.00 73 1016.6
20260507055729 36 228 0.0 0.0 0.00 0.00 0.00 74 1016.6
20260507055225 36 228 0.0 0.0 0.00 0.00 0.00 73 1016.6
20260507054721 36 229 0.0 0.0 0.00 0.00 0.00 74 1016.7
20260507054218 36 228 0.0 0.0 0.00 0.00 0.00 74 1016.6
20260507053716 36 228 0.0 0.0 0.00 0.00 0.00 74 1016.6
20260507053213 36 229 0.0 0.0 0.00 0.00 0.00 74 1016.6
20260507052712 36 228 0.0 0.0 0.00 0.00 0.00 73 1016.7
20260507052208 37 228 0.0 0.0 0.00 0.00 0.00 73 1016.8
20260507051706 37 228 0.0 0.0 0.00 0.00 0.00 73 1016.8
20260507051202 37 228 0.0 0.0 0.00 0.00 0.00 72 1016.8
20260507050659 37 228 0.0 0.0 0.00 0.00 0.00 72 1016.8
20260507050156 38 228 0.0 0.0 0.00 0.00 0.00 72 1016.8
20260507045653 38 228 0.0 0.0 0.00 0.00 0.00 71 1016.6
20260507045149 38 228 0.0 0.0 0.00 0.00 0.00 70 1016.8
20260507044646 38 228 0.0 0.0 0.00 0.00 0.00 70 1017.0
20260507044143 38 215 0.0 0.0 0.00 0.00 0.00 69 1016.9
20260507043639 38 215 0.0 0.0 0.00 0.00 0.00 69 1017.1
20260507043136 38 214 0.0 0.0 0.00 0.00 0.00 68 1016.9
20260507042633 38 209 0.0 0.0 0.00 0.00 0.00 68 1017.0
20260507042127 37 209 0.0 0.0 0.00 0.00 0.00 69 1017.1
20260507041625 38 209 0.0 0.0 0.00 0.00 0.00 68 1017.2
20260507041121 38 217 0.0 0.0 0.00 0.00 0.00 67 1017.0
20260507040619 38 212 0.0 0.0 0.00 0.00 0.00 68 1016.9
20260507040115 38 214 0.0 0.0 0.00 0.00 0.00 67 1017.0
20260507035611 38 204 0.0 2.0 0.00 0.00 0.00 67 1017.1
20260507035107 37 205 0.0 0.0 0.00 0.00 0.00 69 1017.2
20260507034604 36 222 0.0 0.0 0.00 0.00 0.00 70 1017.2
20260507034102 36 244 0.0 0.0 0.00 0.00 0.00 71 1017.0
20260507033600 35 244 0.0 0.0 0.00 0.00 0.00 71 1017.1
20260507033056 35 244 0.0 0.0 0.00 0.00 0.00 71 1017.1
20260507032554 35 244 0.0 0.0 0.00 0.00 0.00 72 1017.2
20260507032050 36 244 0.0 0.0 0.00 0.00 0.00 71 1017.0
20260507031546 36 244 0.0 0.0 0.00 0.00 0.00 71 1017.4
20260507031043 36 243 0.0 0.0 0.00 0.00 0.00 70 1017.2
20260507030540 36 223 0.0 0.0 0.00 0.00 0.00 69 1017.5
20260507030038 36 205 0.0 1.0 0.00 0.00 0.00 69 1017.4